| time (UTC) | temp C | wind direction | speed KPH | gust KPH | rain 1hr cm | rain 24hr cm | rain mn cm | humidity % | barometer mb |
| 20260506040016 | 12 | 0.0 | 1.6 | 0.15 | 2.59 | 0.43 | 96 | 1005.2 | |
| 20260506035016 | 12 | 0.0 | 3.2 | 0.13 | 2.59 | 0.41 | 96 | 1005.2 | |
| 20260506034016 | 12 | 135 | 1.6 | 3.2 | 0.08 | 2.51 | 0.33 | 96 | 1005.2 |
| 20260506033016 | 12 | 135 | 1.6 | 3.2 | 0.10 | 2.51 | 0.33 | 96 | 1005.3 |
| 20260506032016 | 12 | 135 | 1.6 | 3.2 | 0.10 | 2.49 | 0.33 | 96 | 1005.4 |
| 20260506031016 | 12 | 135 | 1.6 | 4.8 | 0.08 | 2.49 | 0.30 | 96 | 1005.4 |
| 20260506030036 | 12 | 135 | 1.6 | 4.8 | 0.08 | 2.46 | 0.28 | 96 | 1005.5 |
| 20260506025036 | 12 | 135 | 1.6 | 6.4 | 0.10 | 2.46 | 0.28 | 96 | 1005.7 |
| 20260506024016 | 12 | 135 | 1.6 | 3.2 | 0.08 | 2.44 | 0.25 | 96 | 1005.8 |
| 20260506023016 | 12 | 135 | 3.2 | 4.8 | 0.08 | 2.41 | 0.23 | 96 | 1005.9 |
| 20260506022016 | 12 | 0.0 | 0.0 | 0.05 | 2.39 | 0.23 | 96 | 1006.0 | |
| 20260506021016 | 12 | 135 | 1.6 | 3.2 | 0.05 | 2.39 | 0.23 | 96 | 1006.1 |
| 20260506020057 | 12 | 135 | 1.6 | 4.8 | 0.05 | 2.39 | 0.20 | 96 | 1006.2 |
| 20260506015016 | 12 | 0.0 | 0.0 | 0.03 | 2.36 | 0.18 | 96 | 1006.3 | |
| 20260506014016 | 12 | 135 | 1.6 | 3.2 | 0.03 | 2.36 | 0.18 | 96 | 1006.4 |
| 20260506013016 | 12 | 135 | 1.6 | 3.2 | 0.00 | 2.34 | 0.15 | 96 | 1006.4 |
| 20260506012015 | 12 | 135 | 1.6 | 3.2 | 0.00 | 2.34 | 0.15 | 96 | 1006.4 |
| 20260506011017 | 12 | 0.0 | 1.6 | 0.00 | 2.34 | 0.15 | 96 | 1006.4 | |
| 20260506010016 | 12 | 0.0 | 1.6 | 0.00 | 2.34 | 0.15 | 96 | 1006.6 | |
| 20260506005035 | 12 | 0.0 | 3.2 | 0.03 | 2.34 | 0.15 | 96 | 1006.6 | |
| 20260506004016 | 12 | 135 | 1.6 | 3.2 | 0.03 | 2.34 | 0.15 | 96 | 1006.7 |
| 20260506003016 | 12 | 135 | 1.6 | 3.2 | 0.03 | 2.34 | 0.15 | 96 | 1006.8 |
| 20260506002015 | 12 | 135 | 1.6 | 3.2 | 0.03 | 2.34 | 0.15 | 95 | 1006.8 |
| 20260506001015 | 12 | 135 | 1.6 | 4.8 | 0.03 | 2.34 | 0.15 | 95 | 1006.8 |
| 20260506000017 | 12 | 113 | 1.6 | 3.2 | 0.05 | 2.34 | 0.15 | 95 | 1007.0 |
| 20260505235017 | 12 | 0.0 | 1.6 | 0.03 | 2.31 | 0.15 | 95 | 1007.0 | |
| 20260505234017 | 12 | 68 | 1.6 | 3.2 | 0.05 | 2.31 | 0.15 | 95 | 1007.1 |
| 20260505233037 | 12 | 68 | 1.6 | 3.2 | 0.05 | 2.31 | 0.15 | 95 | 1007.3 |
| 20260505232015 | 12 | 0.0 | 0.0 | 0.08 | 2.31 | 0.15 | 95 | 1007.3 | |
| 20260505231017 | 12 | 0.0 | 1.6 | 0.10 | 2.31 | 0.15 | 95 | 1007.1 | |
| 20260505230017 | 12 | 68 | 1.6 | 3.2 | 0.13 | 2.31 | 0.13 | 95 | 1007.2 |
| 20260505225017 | 12 | 0.0 | 1.6 | 0.15 | 2.31 | 0.13 | 95 | 1007.3 | |
| 20260505224017 | 12 | 0.0 | 1.6 | 0.18 | 2.29 | 0.10 | 95 | 1007.4 | |
| 20260505223037 | 12 | 0.0 | 1.6 | 0.20 | 2.29 | 0.10 | 95 | 1007.4 | |
| 20260505222037 | 12 | 68 | 1.6 | 3.2 | 0.20 | 2.24 | 0.05 | 95 | 1007.5 |
| 20260505221017 | 12 | 23 | 1.6 | 4.8 | 0.23 | 2.21 | 0.05 | 94 | 1007.6 |
| 20260505220017 | 12 | 0.0 | 1.6 | 0.23 | 2.18 | 2.18 | 95 | 1007.6 | |
| 20260505215016 | 12 | 0.0 | 1.6 | 0.25 | 2.13 | 2.13 | 95 | 1007.6 | |
| 20260505214016 | 12 | 0.0 | 1.6 | 0.30 | 2.11 | 2.11 | 94 | 1007.8 | |
| 20260505213036 | 12 | 0.0 | 1.6 | 0.36 | 2.08 | 2.08 | 94 | 1007.8 | |
| 20260505212016 | 12 | 23 | 1.6 | 4.8 | 0.43 | 2.03 | 2.03 | 94 | 1007.8 |
| 20260505211036 | 12 | 0.0 | 0.0 | 0.48 | 2.01 | 2.01 | 94 | 1007.9 | |
| 20260505210036 | 12 | 0.0 | 0.0 | 0.48 | 1.93 | 1.93 | 94 | 1008.0 | |
| 20260505205016 | 12 | 0.0 | 3.2 | 0.43 | 1.88 | 1.88 | 94 | 1008.0 | |
| 20260505204016 | 12 | 315 | 1.6 | 3.2 | 0.43 | 1.80 | 1.80 | 94 | 1007.9 |
| 20260505203016 | 12 | 315 | 1.6 | 3.2 | 0.46 | 1.73 | 1.73 | 93 | 1007.9 |
| 20260505202016 | 12 | 315 | 1.6 | 4.8 | 0.51 | 1.63 | 1.63 | 93 | 1008.0 |
| 20260505201016 | 12 | 315 | 3.2 | 6.4 | 0.71 | 1.52 | 1.52 | 93 | 1007.9 |
| 20260505200016 | 12 | 0.0 | 3.2 | 0.86 | 1.45 | 1.45 | 93 | 1008.0 | |
| 20260505195016 | 12 | 315 | 6.4 | 11.3 | 1.04 | 1.45 | 1.45 | 93 | 1007.8 |
| 20260505194036 | 13 | 338 | 4.8 | 12.9 | 1.09 | 1.37 | 1.37 | 92 | 1007.6 |
| 20260505193016 | 13 | 270 | 4.8 | 12.9 | 1.09 | 1.27 | 1.27 | 91 | 1007.5 |
| 20260505192016 | 13 | 270 | 11.3 | 24.1 | 1.07 | 1.12 | 1.12 | 91 | 1007.4 |
| 20260505191016 | 13 | 203 | 4.8 | 12.9 | 0.79 | 0.79 | 0.79 | 92 | 1007.7 |
| 20260505190016 | 13 | 293 | 3.2 | 6.4 | 0.61 | 0.61 | 0.61 | 91 | 1007.4 |
| 20260505185016 | 14 | 0.0 | 0.0 | 0.41 | 0.41 | 0.41 | 91 | 1007.5 | |
| 20260505184016 | 14 | 293 | 3.2 | 4.8 | 0.25 | 0.25 | 0.25 | 91 | 1007.3 |
| 20260505183035 | 14 | 293 | 3.2 | 4.8 | 0.15 | 0.15 | 0.15 | 90 | 1007.1 |
| 20260505182016 | 14 | 293 | 3.2 | 4.8 | 0.05 | 0.05 | 0.05 | 88 | 1007.1 |
| 20260505181036 | 15 | 270 | 3.2 | 4.8 | 0.00 | 0.00 | 0.00 | 87 | 1007.1 |
| 20260505180036 | 15 | 270 | 6.4 | 11.3 | 0.00 | 0.00 | 0.00 | 87 | 1007.0 |
| 20260505175036 | 15 | 293 | 4.8 | 11.3 | 0.00 | 0.00 | 0.00 | 85 | 1006.8 |
| 20260505174016 | 15 | 338 | 1.6 | 4.8 | 0.00 | 0.00 | 0.00 | 85 | 1006.8 |
| 20260505173017 | 15 | 0 | 1.6 | 4.8 | 0.00 | 0.00 | 0.00 | 84 | 1006.9 |
| 20260505172015 | 15 | 45 | 1.6 | 3.2 | 0.00 | 0.00 | 0.00 | 84 | 1006.9 |
| 20260505171015 | 15 | 113 | 3.2 | 6.4 | 0.00 | 0.00 | 0.00 | 84 | 1006.9 |
| 20260505170015 | 15 | 90 | 3.2 | 6.4 | 0.00 | 0.00 | 0.00 | 84 | 1006.9 |
| 20260505165016 | 15 | 45 | 3.2 | 6.4 | 0.00 | 0.00 | 0.00 | 83 | 1006.8 |
| 20260505164035 | 15 | 45 | 4.8 | 12.9 | 0.00 | 0.00 | 0.00 | 83 | 1006.9 |
| 20260505163015 | 15 | 23 | 4.8 | 11.3 | 0.00 | 0.00 | 0.00 | 83 | 1007.0 |
| 20260505162017 | 16 | 90 | 4.8 | 11.3 | 0.00 | 0.00 | 0.00 | 82 | 1007.2 |
| 20260505161018 | 16 | 90 | 4.8 | 8.0 | 0.00 | 0.00 | 0.00 | 81 | 1007.2 |
| 20260505153038 | 17 | 45 | 6.4 | 17.7 | 0.00 | 0.00 | 0.00 | 77 | 1007.4 |
| 20260505152016 | 17 | 68 | 6.4 | 14.5 | 0.00 | 0.00 | 0.00 | 77 | 1007.5 |
| 20260505151017 | 17 | 45 | 6.4 | 11.3 | 0.00 | 0.00 | 0.00 | 76 | 1007.6 |
| 20260505125017 | 18 | 293 | 14.5 | 22.5 | 0.00 | 0.00 | 0.00 | 75 | 1008.3 |
| 20260505124037 | 21 | 270 | 11.3 | 20.9 | 0.00 | 0.00 | 0.00 | 67 | 1008.5 |
| 20260505123017 | 21 | 23 | 3.2 | 8.0 | 0.00 | 0.00 | 0.00 | 62 | 1008.7 |
| 20260505122017 | 21 | 23 | 3.2 | 9.7 | 0.00 | 0.00 | 0.00 | 61 | 1008.6 |
| 20260505121037 | 21 | 45 | 4.8 | 8.0 | 0.00 | 0.00 | 0.00 | 65 | 1008.6 |
| 20260505120017 | 21 | 68 | 4.8 | 11.3 | 0.00 | 0.00 | 0.00 | 65 | 1008.7 |
| 20260505115017 | 21 | 113 | 4.8 | 12.9 | 0.00 | 0.00 | 0.00 | 62 | 1008.8 |
| 20260505114037 | 21 | 203 | 4.8 | 14.5 | 0.00 | 0.00 | 0.00 | 67 | 1008.9 |
| 20260505113017 | 20 | 113 | 4.8 | 16.1 | 0.00 | 0.00 | 0.00 | 69 | 1009.0 |
| 20260505112017 | 21 | 68 | 8.0 | 16.1 | 0.00 | 0.00 | 0.00 | 71 | 1009.2 |
| 20260505111018 | 20 | 113 | 4.8 | 11.3 | 0.00 | 0.00 | 0.00 | 71 | 1009.1 |
| 20260505102017 | 18 | 225 | 4.8 | 14.5 | 0.00 | 0.00 | 0.00 | 77 | 1009.5 |
| 20260505101017 | 18 | 203 | 4.8 | 11.3 | 0.00 | 0.00 | 0.00 | 77 | 1009.6 |
| 20260505100017 | 18 | 135 | 3.2 | 8.0 | 0.00 | 0.00 | 0.00 | 77 | 1009.6 |
| 20260505095017 | 18 | 135 | 3.2 | 11.3 | 0.00 | 0.00 | 0.00 | 78 | 1009.7 |
| 20260505094036 | 18 | 180 | 3.2 | 6.4 | 0.00 | 0.00 | 0.00 | 78 | 1009.7 |
| 20260505093016 | 17 | 248 | 1.6 | 3.2 | 0.00 | 0.00 | 0.00 | 78 | 1009.8 |
| 20260505092017 | 17 | 248 | 3.2 | 6.4 | 0.00 | 0.00 | 0.00 | 79 | 1009.8 |
| 20260505091036 | 17 | 225 | 3.2 | 8.0 | 0.00 | 0.00 | 0.00 | 80 | 1009.9 |
| 20260505090016 | 17 | 248 | 3.2 | 4.8 | 0.00 | 0.00 | 0.00 | 80 | 1010.0 |
| 20260505085036 | 17 | 270 | 3.2 | 4.8 | 0.00 | 0.00 | 0.00 | 80 | 1010.1 |
| 20260505084016 | 17 | 203 | 3.2 | 4.8 | 0.00 | 0.00 | 0.00 | 80 | 1010.2 |
| 20260505083017 | 16 | 270 | 3.2 | 6.4 | 0.00 | 0.00 | 0.00 | 81 | 1010.4 |
| 20260505082017 | 16 | 225 | 3.2 | 6.4 | 0.00 | 0.00 | 0.00 | 81 | 1010.3 |
| 20260505081017 | 16 | 225 | 3.2 | 6.4 | 0.00 | 0.00 | 0.00 | 81 | 1010.4 |
| 20260505080017 | 16 | 225 | 3.2 | 6.4 | 0.00 | 0.00 | 0.00 | 83 | 1010.4 |
| 20260505075016 | 15 | 293 | 3.2 | 8.0 | 0.00 | 0.00 | 0.00 | 85 | 1010.4 |
| 20260505074016 | 15 | 293 | 1.6 | 4.8 | 0.00 | 0.00 | 0.00 | 86 | 1010.4 |
| 20260505073016 | 15 | 248 | 3.2 | 4.8 | 0.00 | 0.00 | 0.00 | 87 | 1010.4 |
| 20260505072016 | 14 | 0.0 | 3.2 | 0.00 | 0.00 | 0.00 | 87 | 1010.4 | |
| 20260505071016 | 14 | 135 | 1.6 | 3.2 | 0.00 | 0.00 | 0.00 | 88 | 1010.4 |
| 20260505070017 | 13 | 270 | 1.6 | 4.8 | 0.00 | 0.00 | 0.00 | 89 | 1010.4 |
| 20260505065016 | 13 | 293 | 3.2 | 6.4 | 0.00 | 0.00 | 0.00 | 90 | 1010.4 |
| 20260505064016 | 13 | 293 | 4.8 | 6.4 | 0.00 | 0.00 | 0.00 | 90 | 1010.5 |
| 20260505063036 | 13 | 293 | 3.2 | 6.4 | 0.00 | 0.00 | 0.00 | 90 | 1010.6 |
| 20260505062016 | 12 | 293 | 4.8 | 8.0 | 0.00 | 0.00 | 0.00 | 90 | 1010.8 |
| 20260505061036 | 12 | 315 | 6.4 | 11.3 | 0.00 | 0.00 | 0.00 | 91 | 1010.8 |
| 20260505060016 | 12 | 315 | 4.8 | 8.0 | 0.00 | 0.00 | 0.00 | 91 | 1010.9 |
| 20260505055017 | 12 | 293 | 4.8 | 11.3 | 0.00 | 0.00 | 0.00 | 91 | 1010.9 |
| 20260505054016 | 12 | 293 | 3.2 | 4.8 | 0.00 | 0.00 | 0.00 | 91 | 1010.8 |
| 20260505053016 | 12 | 293 | 3.2 | 6.4 | 0.00 | 0.00 | 0.00 | 91 | 1011.0 |
| 20260505052016 | 12 | 0.0 | 1.6 | 0.00 | 0.00 | 0.00 | 91 | 1011.0 | |
| 20260505051016 | 12 | 0.0 | 0.0 | 0.00 | 0.00 | 0.00 | 91 | 1010.9 | |
| 20260505041016 | 12 | 0.0 | 0.0 | 0.00 | 0.00 | 0.00 | 91 | 1011.2 |